User: anonymous   Login
Location: Krakow
(50.0212°N, 19.9423°E)
Time: 08:32:39
(UTC+02:00)
Language:

ITUPSAT 1 - Orbit

View from above orbital plane
View from above orbital plane
View from above satellite
View from above satellite

Ground track
Ground track

The orbit data is extracted from the following two-line orbital elements,

1 35935U 09051E   24202.95150601  .00002187  00000-0  48768-3 0  9991
2 35935  98.4697  87.5665 0006722 227.9901 132.0725 14.57888761787180
Epoch (UTC): 20 July 2024 22:50:10
Eccentricity: 0.0006722
inclination: 98.4697°
perigee height: 695 km
apogee height: 705 km
right ascension of ascending node: 87.5665°
argument of perigee: 227.9901°
revolutions per day: 14.57888761
mean anomaly at epoch: 132.0725°
orbit number at epoch: 78718

The dashed part of the orbit path shows where the satellite is in the earth's shadow,  

DLR